SCP
0 1 1 1 0 0 0 0 0 0 0 0 0 0 0 0 0 0 0 0 0 0 0 0 0 0 0 0 0 0 0 0 0 0 0 0 0 0 0 0 0 0 0
0 1 1 1 0 0 0 0 0 0 0 0 0 0 0 0 0 0 0 0 0 0 0 0 0 0 0 0 0 0 0 0 0 0 0 0 0 0 0 0 0 0 0
0 1 1 1 0 0 0 0 0 0 0 0 0 0 0 0 0 0 0 0 0 0 0 0 0 0 0 0 0 0 0 0 0 0 0 0 0 0 0 0 0 0 0
1 1 1 1 1 0 0 0 0 0 0 0 0 0 0 0 0 0 0 0 0 0 0 0 0 0 0 0 0 0 0 0 0 0 0 0 0 0 0 1 0 0 0
1 1 1 1 1 0 0 0 0 0 0 0 0 0 0 0 0 0 0 0 0 0 0 0 0 0 0 0 0 0 0 0 0 0 0 0 0 0 1 1 1 0 0
1 1 1 1 1 0 0 0 0 0 0 0 0 0 0 0 0 0 0 0 0 0 0 0 0 0 0 0 0 0 0 0 0 0 0 0 0 0 1 1 1 0 0
1 1 1 1 1 0 0 0 0 0 0 0 0 0 0 0 0 0 0 0 0 0 0 0 0 0 0 0 0 0 0 0 0 0 0 0 0 1 1 1 1 0 0
1 1 1 1 0 0 1 1 1 0 0 0 0 0 0 0 0 0 0 0 0 0 0 0 0 0 0 0 0 0 0 0 0 0 0 0 0 1 1 1 1 1 1
1 1 1 0 0 0 1 1 1 0 0 0 0 0 0 0 0 0 0 0 0 0 0 0 0 0 0 0 0 0 0 0 0 0 0 0 0 1 1 1 1 1 1
1 1 0 0 0 0 1 1 1 1 1 0 0 0 0 0 0 0 0 0 0 0 0 0 0 0 0 0 0 0 0 0 0 0 0 0 1 1 1 1 1 1 1
0 0 0 0 0 0 0 0 1 1 1 1 0 0 0 0 0 0 0 0 0 0 0 0 0 0 0 0 0 0 0 0 0 0 0 0 1 1 1 1 1 1 1
0 0 0 0 0 0 0 0 1 1 1 1 0 1 0 0 0 0 0 0 0 0 0 0 0 0 0 0 0 0 0 0 0 0 0 0 1 1 1 1 1 1 1
0 0 1 1 1 1 1 1 1 1 1 1 1 1 1 1 1 1 1 1 0 0 0 0 0 0 0 0 0 0 0 0 0 0 0 0 1 1 1 1 1 1 1
0 1 1 1 1 1 1 1 1 1 1 1 1 1 1 1 1 1 1 1 1 0 0 0 0 0 0 0 0 0 0 0 0 0 0 1 1 1 1 1 1 0 0
1 1 1 1 1 1 1 1 1 1 1 1 1 1 1 1 1 1 1 1 1 0 0 0 0 0 0 0 0 0 0 0 0 0 0 0 1 1 0 0 0 0 0
1 1 1 1 1 1 1 1 1 1 1 1 1 1 1 1 1 1 1 1 1 0 0 0 0 0 0 0 0 0 0 0 0 0 0 0 0 0 0 0 0 0 0
1 1 1 1 1 1 1 1 1 1 1 1 1 1 1 1 1 1 1 1 1 0 0 0 0 0 0 0 0 0 0 0 0 0 0 0 0 0 0 0 0 0 0
1 1 1 1 1 1 1 1 1 1 1 1 1 1 1 1 1 1 1 1 0 0 0 0 0 0 0 0 0 0 0 0 0 0 0 0 0 0 0 0 0 0 0
1 1 1 1 1 1 1 1 1 1 1 1 1 1 1 1 1 1 1 1 1 0 0 0 0 0 0 0 0 0 0 0 0 0 0 0 0 0 0 0 0 0 0
1 1 1 1 1 1 1 1 1 1 1 1 1 1 1 1 1 1 1 1 0 0 0 0 0 0 0 0 0 0 0 0 0 0 0 0 0 0 0 0 0 0 0
1 1 1 1 1 1 1 1 1 1 1 1 1 1 1 1 1 1 1 1 0 0 0 0 0 0 0 0 0 0 0 0 0 0 0 0 0 0 0 0 0 0 0
1 1 1 1 1 1 1 1 1 1 1 1 1 1 1 1 1 1 1 0 0 0 0 0 0 0 0 0 0 0 0 0 0 0 0 0 0 0 0 0 0 0 0
1 1 1 1 1 1 1 1 1 0 0 0 0 0 0 1 1 1 1 0 0 0 0 0 0 0 0 0 0 0 0 0 0 0 0 0 0 0 0 0 0 0 0
1 1 1 1 1 1 1 1 0 0 0 0 0 0 0 0 0 0 0 0 0 0 0 0 0 0 0 0 0 0 0 0 0 0 0 0 0 0 0 0 0 0 0
1 1 1 1 1 1 1 0 0 0 0 0 0 0 0 0 0 0 0 0 0 0 0 0 0 0 0 0 0 0 0 0 0 0 0 0 0 0 0 0 0 0 0
1 1 1 1 1 1 1 0 0 0 0 0 0 0 0 0 0 0 0 0 0 0 0 0 0 0 0 0 0 0 0 0 0 0 0 0 0 0 0 0 0 0 0
Wind_Speed
11 12 13 11 10 9 9 8 8 8 8 7 7 7 7 7 7 8 8 9 8 8 8 7 6 6 5 5 5 5 5 5 4 5 5 5 6 6 5 5 4 5 9
13 12 13 10 10 9 9 8 7 8 7 7 7 7 7 7 7 7 7 7 7 7 7 6 6 5 5 4 4 4 3 3 2 2 2 3 4 5 5 4 4 4 9
13 13 12 10 10 9 9 8 8 7 7 7 6 6 6 6 6 6 6 6 6 6 6 6 5 5 4 3 3 3 3 2 2 2 3 3 4 7 7 6 6 6 7
13 13 11 11 10 10 9 8 8 8 7 7 6 6 6 6 5 5 5 5 5 5 5 5 5 4 4 3 3 3 3 3 3 4 4 4 4 7 8 7 7 6 6
13 14 13 12 10 9 9 8 8 7 7 7 6 6 6 5 5 5 5 5 5 5 5 5 5 4 4 4 4 3 4 5 6 7 5 4 3 8 8 7 7 6 6
13 14 14 13 11 10 9 8 8 7 6 6 5 5 5 5 4 4 4 4 4 4 4 4 4 4 4 4 4 4 5 6 7 6 5 3 3 9 9 7 6 6 6
12 14 14 13 12 10 9 8 8 7 6 5 5 5 4 4 4 4 4 4 4 4 4 4 4 4 4 4 4 5 6 8 7 6 3 2 3 9 10 8 6 6 6
11 14 13 13 13 11 10 9 8 8 7 5 4 4 4 4 4 4 4 4 4 4 4 4 4 4 4 4 4 5 7 9 7 6 2 2 5 8 9 8 7 6 5
9 11 10 11 11 11 11 10 9 8 7 6 5 4 4 5 5 5 5 4 4 4 4 4 4 4 4 4 5 6 8 9 7 4 3 3 6 8 8 7 6 5 5
8 7 6 7 7 8 9 10 10 9 8 7 6 6 5 5 6 7 6 5 5 5 5 5 5 5 5 6 7 8 8 8 7 4 2 3 7 8 7 7 6 6 6
8 5 4 6 5 5 5 8 9 9 8 7 7 8 7 5 5 6 7 7 7 7 7 7 7 7 7 8 9 10 8 5 5 2 1 3 6 7 7 6 6 6 7
7 5 4 5 3 3 3 4 3 3 4 4 3 3 3 3 3 3 6 8 8 8 8 9 9 8 8 5 7 9 5 6 4 3 3 6 6 6 6 5 5 5 7
5 4 4 4 3 3 2 2 1 1 2 3 2 2 2 2 1 2 2 4 5 6 5 6 7 5 5 3 3 4 5 4 2 2 4 7 6 6 6 5 5 5 5
4 4 5 5 4 3 2 0 1 1 1 1 1 0 1 1 0 0 0 1 2 2 3 2 2 4 3 3 4 4 4 3 1 2 3 6 7 7 7 7 6 6 6
4 4 4 4 3 2 1 1 0 1 1 1 1 1 1 0 0 0 0 1 1 1 1 2 1 2 3 3 3 3 3 3 2 2 3 6 7 7 7 8 7 7 7
4 3 3 3 3 2 1 0 1 1 1 1 1 1 1 0 0 1 0 0 1 1 1 1 2 2 2 2 2 2 3 2 2 2 3 5 7 8 7 7 8 8 7
4 3 2 2 3 2 0 1 1 1 0 0 1 1 1 0 1 0 1 1 1 2 2 1 2 2 2 2 2 3 2 2 2 2 2 3 4 8 9 8 9 9 8
4 3 2 1 2 1 0 1 1 1 0 0 1 1 1 0 0 0 0 1 2 2 1 1 1 1 2 2 2 2 2 1 2 3 3 3 3 3 6 10 10 10 9
4 3 2 1 2 1 1 1 1 1 1 0 1 1 1 0 0 0 0 1 2 1 1 2 1 1 2 2 2 2 2 2 3 4 3 3 3 3 3 6 10 11 10
4 3 2 2 2 1 1 0 0 0 1 0 0 1 1 1 0 1 1 1 2 1 1 1 2 1 2 2 4 3 2 3 2 3 3 3 3 4 4 4 5 7 11
4 3 2 2 1 1 0 0 1 1 1 1 1 1 1 1 1 1 1 1 2 1 2 2 2 2 2 1 2 2 3 3 3 3 3 3 3 3 4 4 4 3 4
4 3 3 2 1 1 0 0 1 1 2 2 1 1 1 2 2 2 1 2 1 1 2 3 2 2 2 1 1 2 2 2 2 3 3 4 4 2 3 4 3 3 3
4 4 3 2 1 1 1 0 1 1 2 1 0 1 1 1 2 2 2 2 2 2 2 2 2 3 2 2 2 1 1 1 1 1 2 2 2 2 2 3 4 3 3
3 3 3 3 2 1 1 1 2 2 1 2 1 1 1 2 2 2 2 2 2 2 2 3 2 2 2 2 2 1 2 1 1 1 1 2 2 3 3 3 2 2 2
3 3 3 3 2 1 0 1 1 1 1 1 1 1 1 2 2 2 2 2 2 2 2 2 1 2 2 2 2 2 2 2 3 2 2 2 2 2 2 2 2 2 2
3 4 3 2 2 1 1 1 1 2 2 1 2 1 1 1 1 2 2 1 1 1 2 2 2 2 2 3 2 2 2 2 2 2 2 2 2 2 2 2 2 2 2
Wind_Direction
104 110 115 116 118 117 118 119 118 115 112 108 106 105 104 104 101 104 108 110 113 118 121 124 127 124 118 109 101 96 94 89 84 88 95 97 105 106 107 108 124 126 122
110 113 115 116 119 121 122 123 122 119 115 113 113 113 111 114 114 113 116 122 127 131 134 136 135 132 130 127 121 117 117 120 113 111 126 147 149 143 133 124 115 112 130
113 118 118 117 122 125 126 125 125 125 122 120 120 121 120 119 123 125 126 128 138 144 144 143 143 141 140 142 142 148 156 171 179 199 211 219 173 162 152 142 130 131 135
119 122 122 124 125 126 126 125 123 126 127 126 125 125 126 124 126 129 134 139 145 149 152 153 155 158 158 160 167 177 193 211 226 238 231 224 194 162 157 150 142 138 141
118 119 121 125 124 124 124 124 124 125 126 128 130 131 131 133 135 137 141 147 153 159 165 170 172 175 172 179 190 208 224 234 241 246 244 219 172 152 152 155 152 151 151
117 119 125 130 130 129 129 128 128 127 126 127 129 134 137 142 146 150 156 162 165 171 179 180 181 188 189 193 200 220 235 242 251 244 232 209 154 146 148 156 163 161 161
117 122 130 134 134 133 130 130 129 128 128 130 132 135 141 150 157 158 168 173 175 181 185 185 185 192 196 202 211 224 237 246 249 257 229 171 157 148 149 158 168 169 173
114 121 130 139 141 141 137 134 130 129 131 133 139 149 159 161 165 172 177 182 180 187 193 194 197 199 203 210 219 230 243 253 251 250 212 167 163 154 152 155 168 175 176
102 116 135 144 148 149 145 142 141 142 147 154 160 167 175 181 184 184 187 189 189 194 201 206 210 210 210 215 224 236 246 252 266 262 235 171 169 162 161 164 176 184 185
92 100 129 132 137 146 150 153 154 159 169 174 180 186 193 198 200 197 193 191 201 207 209 209 211 217 220 222 227 236 248 256 251 253 238 171 167 162 164 175 187 198 200
98 102 125 120 126 138 143 145 163 172 182 187 193 201 203 210 200 199 197 186 199 211 215 216 218 221 226 225 227 229 241 243 234 223 241 158 162 164 167 179 199 211 213
111 115 108 94 94 107 115 128 158 170 160 188 192 192 208 214 213 206 170 185 202 210 217 223 227 228 229 223 222 222 228 233 235 201 182 170 171 173 177 182 199 219 226
109 107 103 95 83 79 77 110 147 178 165 194 168 188 220 234 206 181 168 180 200 208 218 217 221 225 223 220 207 207 222 231 218 203 174 175 175 183 193 192 201 218 229
111 109 91 88 75 63 60 71 199 176 164 209 140 194 259 253 157 152 165 194 199 193 207 215 212 217 225 234 227 216 218 220 213 170 165 181 182 191 203 206 208 218 227
99 94 89 88 94 91 82 302 318 244 206 213 148 178 239 249 282 199 227 243 247 229 220 226 235 235 233 231 243 233 226 219 228 197 159 189 195 200 209 214 217 220 226
91 87 93 107 110 107 119 241 263 258 216 195 146 160 176 157 234 265 225 260 276 270 246 240 240 253 243 240 242 241 246 218 211 212 172 190 204 204 208 215 222 219 221
90 85 92 129 104 94 70 283 268 272 223 129 136 133 159 190 185 269 246 239 257 260 254 242 257 255 247 241 234 241 246 229 205 219 210 189 198 209 210 212 220 218 218
97 94 79 46 91 95 3 292 319 318 345 167 155 134 128 150 242 245 271 271 275 274 275 245 235 266 276 266 258 256 254 224 217 219 220 213 192 199 206 211 216 218 218
101 107 111 69 82 79 332 325 338 344 335 293 97 109 122 131 295 291 283 289 278 275 279 280 252 246 268 275 268 243 235 221 215 227 224 218 197 202 198 202 215 219 217
112 111 119 105 99 118 146 344 299 259 259 251 123 124 129 165 253 287 215 274 293 288 271 264 280 260 254 259 273 271 247 220 217 218 230 224 209 211 203 203 210 215 214
127 126 122 114 109 135 127 247 252 245 255 255 195 155 182 202 232 257 264 252 254 247 271 281 269 273 260 242 273 284 263 223 218 210 213 224 223 221 203 199 205 205 207
138 130 123 118 115 140 118 263 252 265 253 225 203 190 215 205 216 237 229 253 253 245 254 256 257 259 272 260 246 270 279 250 236 228 207 210 216 219 218 218 210 204 209
146 140 132 139 158 162 150 247 286 260 267 266 187 249 260 234 216 236 235 241 248 240 242 253 260 259 262 265 248 240 266 274 310 268 228 218 201 203 216 217 217 206 203
160 146 134 140 144 139 164 220 254 255 260 278 267 227 266 252 237 232 224 231 234 238 249 257 248 263 265 265 268 243 230 250 254 274 271 241 221 212 217 229 214 206 192
145 122 114 120 121 118 190 229 249 289 302 306 293 232 252 252 245 237 217 225 222 225 240 262 284 271 266 269 271 271 270 262 245 244 270 270 260 232 209 207 192 199 198
119 113 122 131 132 136 179 196 245 265 276 297 301 298 282 269 254 234 228 209 214 226 248 254 255 254 253 265 268 263 260 266 262 250 261 263 255 252 228 217 204 201 203